[[{"header":{"parameterUnit":"m.s-1","parameterCategory":1,"la1":30.2991,"la2":30.254,"lo1":-89.0895,"lo2":-89.0444,"dy":0.0017,"dx":0.0017,"nx":28,"ny":28,"refTime":"2025-07-20T21:00:00:Z","depth":0,"parameterNumber":2,"parameterNumberName":"U-component_of_WINDS"},"data":[0,0,0,0,0,0,0,0,0,0,0,0,0,0,0,0,0,0,0,0,0,0,0,0,0,0,0,0,0,0,0,0,0,0,0,0,0,0,0,0,0,0,0,0,0,0,0,0,0,0,0,0,0,0,0,0,0,0,2.9669,2.9671,0,2.9816,2.9818,2.9819,2.9796,2.9793,2.9791,2.9788,2.9945,2.9951,2.9957,0,0,0,0,0,0,0,0,0,0,0,0,0,2.9375,2.938,2.9669,2.9671,2.9673,2.9816,2.9818,2.982,2.9796,2.9793,2.979,2.9787,2.9942,2.995,2.9958,0,0,0,0,0,0,0,0,0,0,0,0,0,2.951,2.9382,2.9669,2.9678,2.968,2.9815,2.9818,2.982,2.9797,2.9793,2.9789,2.9785,2.994,2.9949,2.9959,3.0096,0,0,2.9989,2.9993,0,0,0,0,0,0,0,0,2.9503,2.9521,2.9675,2.9678,2.968,2.9783,2.9771,2.9913,2.9798,2.9753,2.9788,2.9784,2.9895,2.9908,2.9944,3.0103,3.011,2.999,2.9996,3.0,3.0003,0,0,0,0,0,0,0,2.9493,2.9515,2.9727,2.9677,2.9681,2.9677,2.9692,2.9798,2.9844,2.9756,2.9755,2.9772,2.9895,2.9935,2.9947,3.0112,2.999,2.9998,3.0004,3.0008,3.0393,3.0397,0,0,0,0,0,0,2.948,2.9507,2.9723,2.9732,2.958,2.9685,2.9702,2.9754,2.9842,2.9852,2.9775,2.9771,2.992,2.9936,2.9953,3.012,3.0,3.0009,3.0015,3.0389,3.0394,3.0399,0,0,0,0,0,0,2.9474,2.95,2.9717,2.9619,2.9646,2.9694,2.9753,2.9759,2.9798,2.9856,2.9865,2.9807,2.9917,2.9939,3.0061,3.0125,3.0014,3.0023,3.0384,3.0391,3.0397,3.0454,0,0,0,0,0,0,2.9466,2.9498,2.9549,2.962,2.9652,2.982,2.9757,2.9765,2.9815,2.981,2.9888,2.9898,2.9916,3.0046,3.007,3.0136,3.003,3.0378,3.0387,3.0395,3.0447,3.0462,3.0475,0,0,0,0,0,2.9455,2.956,2.9551,2.9578,2.9716,2.9824,2.9842,2.9859,2.982,2.9873,2.991,2.9895,3.0114,3.0059,3.0086,3.0156,3.0374,3.0385,3.0394,3.0441,3.0459,3.0475,0,0,0,0,0,0,2.9497,2.957,2.9561,2.9691,2.9752,2.982,2.9887,2.9878,2.9952,2.9945,2.9965,2.9983,3.0107,3.0143,3.0081,3.0294,3.0239,3.0255,3.0265,3.0283,3.0297,3.0286,3.0038,0,0,0,0,0,2.9521,2.96,2.966,2.977,2.9801,2.9839,2.9886,2.9894,2.9958,2.9984,3.003,3.0095,3.0178,3.0232,3.0312,3.0452,3.047,3.0514,3.0528,3.0539,3.0553,3.0631,3.0651,3.0431,3.0431,3.0431,0,0,2.9572,2.9621,2.9671,2.978,2.9827,2.9911,2.986,2.9951,3.0014,2.9998,3.0115,3.0152,3.0225,3.0357,3.0417,3.0391,3.0617,3.0551,3.056,3.0568,3.0643,3.0664,3.0682,3.0438,3.0437,3.0436,0,0,2.9708,2.9753,2.9849,2.9898,2.9969,2.9994,3.0017,3.0087,3.011,3.0228,3.0218,3.0295,3.0437,3.049,3.0536,3.0692,3.0682,3.0718,3.0792,3.0867,3.0885,3.09,3.0957,3.0977,3.0731,3.0731,3.0731,0,2.9763,2.9886,2.9901,2.9993,3.0042,3.0029,3.0129,3.0176,3.0271,3.0306,3.0275,3.0454,3.0503,3.0647,3.0685,3.0722,3.0751,3.0709,3.0881,3.0896,3.0911,3.0966,3.0987,3.0735,3.0735,3.0734,3.0734,0,2.9951,3.0038,3.0108,3.0198,3.0255,3.035,3.038,3.0437,3.044,3.0469,3.059,3.0647,3.0739,3.0774,3.0778,3.0919,3.0901,3.0875,3.0821,3.0936,3.0987,3.1008,3.0741,3.074,3.0738,3.0737,0,0,3.0117,3.0214,3.024,3.0281,3.036,3.0428,3.0523,3.0611,3.066,3.0726,3.0808,3.0929,3.0906,3.0958,3.0969,3.1035,3.1157,3.1001,3.1003,3.1029,3.1317,3.1336,3.136,3.115,3.1154,3.1157,3.1311,0,3.0261,3.0428,3.0444,3.0594,3.0675,3.0665,3.0749,3.0807,3.0837,3.0911,3.0945,3.1031,3.0993,3.1024,3.1089,3.1128,3.1215,3.1117,3.1228,3.1232,3.121,3.1387,3.1407,3.1549,3.1331,3.1335,3.1337,0,3.0451,3.0522,3.068,3.0748,3.0782,3.0857,3.0939,3.101,3.1077,3.1094,3.1152,3.1154,3.1255,3.1195,3.1336,3.1269,3.1315,3.1341,3.1347,3.1359,3.1292,3.1404,3.1595,3.1617,3.1369,3.1366,3.1364,0,3.0558,3.0692,3.0804,3.084,3.0922,3.0975,3.1012,3.1075,3.1127,3.1199,3.1234,3.1318,3.1364,3.143,3.1456,3.141,3.1595,3.1538,3.1614,3.1613,3.1654,3.1651,3.1856,3.1683,3.1682,3.1682,3.1681,0,3.0717,3.0815,3.0853,3.0922,3.1031,3.105,3.1158,3.1193,3.1249,3.1326,3.1323,3.1396,3.1425,3.1503,3.1524,3.1638,3.1659,3.1677,3.1681,3.1677,3.1675,3.1708,3.1699,3.1688,3.1686,3.1685,3.1684,0,3.0855,3.0884,3.1006,3.1073,3.1093,3.117,3.1229,3.1297,3.1325,3.1423,3.1447,3.1492,3.1584,3.1616,3.1728,3.1742,3.1874,3.187,3.1851,3.1852,3.1926,3.1919,3.216,3.2193,3.1998,3.2,3.2001,0,3.0955,3.1029,3.1105,3.1155,3.1193,3.1275,3.1328,3.1349,3.1405,3.1487,3.1545,3.1636,3.171,3.1858,3.1902,3.1988,3.1986,3.2065,3.1999,3.1993,3.1988,3.1984,3.1992,3.2077,3.2079,3.2081,3.2082,0,3.113,3.1141,3.1216,3.1297,3.1359,3.1424,3.1487,3.1529,3.1561,3.1624,3.1716,3.1773,3.1887,3.1978,3.2066,3.2106,3.2101,3.2102,3.2125,3.2122,3.2108,3.2117,3.1885,3.2097,3.2096,3.2094,3.2094,3.2093,3.1252,3.1318,3.1381,3.1465,3.1515,3.1574,3.1641,3.1677,3.1754,3.1847,3.1856,3.1957,3.2023,3.214,3.2185,3.2265,3.2243,3.2275,3.2284,3.2291,3.2297,3.2094,3.2281,3.2281,3.2281,3.228,3.228,0,3.1427,3.1467,3.1544,3.1632,3.1699,3.1686,3.1755,3.1812,3.19,3.1962,3.2034,3.2141,3.223,3.2281,3.2369,3.2424,3.2424,3.2447,3.2443,3.2453,3.2311,3.2283,3.2445,3.2445,3.2445,3.2445,3.2445,3.2445,3.1526,3.1637,3.1656,3.1792,3.1832,3.1929,3.197,3.2025,3.2074,3.2194,3.2266,3.2298,3.2357,3.2449,3.253,3.2543,3.2576,3.2602,3.2613,3.248,3.2463,3.2446,3.242,3.2609,3.2609,3.2748,3.2749,3.275]},{"header":{"parameterUnit":"m.s-1","parameterCategory":1,"la1":30.2991,"la2":30.254,"lo1":-89.0895,"lo2":-89.0444,"dy":0.0017,"dx":0.0017,"nx":28,"ny":28,"refTime":"2025-07-20T21:00:00:Z","depth":0,"parameterNumber":3,"parameterNumberName":"V-component_of_WINDS"},"data":[0,0,0,0,0,0,0,0,0,0,0,0,0,0,0,0,0,0,0,0,0,0,0,0,0,0,0,0,0,0,0,0,0,0,0,0,0,0,0,0,0,0,0,0,0,0,0,0,0,0,0,0,0,0,0,0,0,0,2.8282,2.8283,0,2.8371,2.8372,2.8373,2.8341,2.8339,2.8337,2.8335,2.8425,2.8429,2.8433,0,0,0,0,0,0,0,0,0,0,0,0,0,2.8082,2.8086,2.8282,2.8283,2.8284,2.8371,2.8372,2.8373,2.8341,2.8339,2.8336,2.8334,2.8424,2.8429,2.8434,0,0,0,0,0,0,0,0,0,0,0,0,0,2.8169,2.8087,2.8282,2.8279,2.8279,2.837,2.8372,2.8373,2.8342,2.8339,2.8336,2.8333,2.8422,2.8428,2.8434,2.8533,0,0,2.8454,2.8457,0,0,0,0,0,0,0,0,2.8165,2.8177,2.8278,2.8279,2.828,2.8342,2.8334,2.8427,2.8342,2.8318,2.8335,2.8332,2.84,2.8408,2.8431,2.8538,2.8541,2.8454,2.8458,2.8461,2.8463,0,0,0,0,0,0,0,2.8158,2.8173,2.8317,2.828,2.8281,2.8272,2.8281,2.8352,2.8374,2.832,2.8318,2.8329,2.84,2.8425,2.8433,2.8543,2.8454,2.846,2.8464,2.8466,2.8731,2.8734,0,0,0,0,0,0,2.8152,2.8168,2.8314,2.832,2.8214,2.8278,2.8288,2.8325,2.8374,2.8378,2.8331,2.8327,2.8415,2.8425,2.8436,2.8552,2.8461,2.8467,2.8471,2.8727,2.8731,2.8735,0,0,0,0,0,0,2.8148,2.8166,2.8311,2.8243,2.8261,2.8285,2.8326,2.8328,2.8353,2.8382,2.8386,2.8353,2.8413,2.8427,2.8508,2.8554,2.847,2.8476,2.8724,2.8729,2.8733,2.8786,0,0,0,0,0,0,2.8142,2.8164,2.8203,2.8244,2.8265,2.8383,2.8329,2.8332,2.8364,2.836,2.8403,2.8408,2.8412,2.8499,2.8515,2.8562,2.8481,2.872,2.8726,2.8732,2.878,2.8792,2.8802,0,0,0,0,0,2.8135,2.8215,2.8205,2.8223,2.8314,2.8386,2.8397,2.8401,2.8368,2.8407,2.8425,2.8406,2.8547,2.8508,2.8525,2.8575,2.8717,2.8724,2.8731,2.8776,2.879,2.8802,0,0,0,0,0,0,2.8179,2.8221,2.821,2.8306,2.8342,2.838,2.8429,2.8417,2.8463,2.8457,2.8459,2.8469,2.8552,2.8572,2.8527,2.8671,2.8627,2.8638,2.8655,2.8669,2.8679,2.8672,2.8486,0,0,0,0,0,2.82,2.8256,2.8289,2.837,2.8389,2.8406,2.8437,2.8436,2.8474,2.849,2.8514,2.8551,2.8602,2.8637,2.8687,2.8783,2.8791,2.8826,2.8837,2.8846,2.8855,2.8903,2.8918,2.8758,2.8758,2.8758,0,0,2.8243,2.8273,2.8308,2.8379,2.8407,2.8463,2.8419,2.8481,2.8522,2.8499,2.8577,2.8596,2.8637,2.8725,2.8765,2.8744,2.89,2.8855,2.8862,2.8866,2.8912,2.8927,2.8941,2.8763,2.8762,2.8762,0,0,2.835,2.838,2.8449,2.8478,2.8521,2.8531,2.8547,2.8587,2.8598,2.8676,2.8659,2.8708,2.8799,2.8827,2.8854,2.8969,2.8953,2.8985,2.9042,2.9089,2.9102,2.9113,2.9151,2.9165,2.8994,2.8995,2.8995,0,2.8399,2.8483,2.8486,2.8548,2.8579,2.856,2.8629,2.8657,2.8714,2.8734,2.871,2.8821,2.8848,2.8941,2.8969,2.8992,2.9009,2.898,2.91,2.9111,2.9122,2.9158,2.9173,2.8998,2.8998,2.8997,2.8997,0,2.8539,2.8598,2.8648,2.8703,2.8739,2.8805,2.8815,2.8852,2.8847,2.886,2.8937,2.8969,2.9023,2.9045,2.9042,2.9137,2.9122,2.9099,2.9055,2.914,2.9174,2.9188,2.9003,2.9002,2.9001,2.9,0,0,2.8677,2.873,2.8748,2.8771,2.8816,2.8861,2.8925,2.8977,2.9007,2.9047,2.9098,2.9174,2.9152,2.9182,2.9182,2.9224,2.9309,2.9195,2.9196,2.9213,2.9411,2.9427,2.9443,2.9299,2.9302,2.9304,2.9407,0,2.8785,2.8896,2.8899,2.9001,2.9053,2.9035,2.909,2.9122,2.9135,2.918,2.9194,2.9247,2.9215,2.9233,2.9274,2.929,2.9348,2.9283,2.9344,2.9347,2.9332,2.9461,2.9478,2.9574,2.9421,2.9423,2.9425,0,2.8927,2.8969,2.9076,2.911,2.9132,2.9182,2.9228,2.9273,2.9308,2.9314,2.9347,2.9339,2.9402,2.9356,2.9441,2.9396,2.9421,2.9433,2.9436,2.9441,2.9389,2.9466,2.9605,2.9619,2.9446,2.9444,2.9443,0,2.9012,2.9097,2.917,2.9191,2.9234,2.9269,2.9288,2.9321,2.9351,2.9392,2.9411,2.9459,2.9484,2.9521,2.9525,2.9493,2.9609,2.9565,2.9614,2.9614,2.9638,2.9636,2.978,2.9659,2.9658,2.9658,2.9658,0,2.9132,2.9197,2.9209,2.9254,2.9325,2.9328,2.9398,2.9414,2.9443,2.949,2.9478,2.9521,2.9526,2.9571,2.9575,2.9642,2.9655,2.966,2.966,2.966,2.9659,2.9675,2.9667,2.9662,2.9661,2.966,2.966,0,2.9239,2.925,2.9329,2.9362,2.9372,2.9423,2.9451,2.9493,2.9504,2.9563,2.9577,2.9594,2.9645,2.9654,2.9715,2.9718,2.9797,2.9792,2.9785,2.9784,2.9831,2.9825,2.9989,3.0009,2.9876,2.9878,2.9879,0,2.9313,2.9363,2.9401,2.9431,2.9452,2.9501,2.9532,2.9535,2.9567,2.961,2.9646,2.9696,2.9736,2.9819,2.9836,2.9882,2.9876,2.993,2.9882,2.9879,2.9873,2.9869,2.9872,2.9938,2.994,2.9941,2.9942,0,2.9443,2.9445,2.949,2.9536,2.9572,2.9609,2.9643,2.9669,2.9676,2.9712,2.9765,2.9796,2.9857,2.9906,2.9951,2.9969,2.9956,2.9957,2.997,2.9969,2.9962,2.9963,2.9807,2.9953,2.9952,2.9951,2.995,2.995,2.9534,2.9576,2.9608,2.9658,2.9684,2.9715,2.9755,2.9771,2.9815,2.9865,2.9864,2.992,2.9952,3.0011,3.0032,3.0075,3.0057,3.0077,3.0082,3.0086,3.0089,2.9957,3.0084,3.0083,3.0083,3.0083,3.0082,0,2.966,2.968,2.9725,2.9773,2.9811,2.9796,2.9832,2.9865,2.9915,2.9946,2.9985,3.0043,3.009,3.011,3.0155,3.0186,3.0181,3.0197,3.0194,3.0198,3.0104,3.0086,3.02,3.02,3.02,3.02,3.02,3.02,2.973,2.9799,2.9805,2.9885,2.9904,2.9959,2.9981,3.0009,3.0033,3.0099,3.0138,3.0151,3.0176,3.0223,3.0264,3.0269,3.0285,3.0304,3.0305,3.0217,3.0205,3.0193,3.0177,3.0308,3.0308,3.0395,3.0396,3.0396]}]]